Location: Bamobli
(6.6379°N, 10.9396°W)
Time: 15:29:40
(UTC+00:00)

Cosmos 1821 Rocket - Pass Details

Date: 07 June 2020
Orbit: 944 x 1005 km, 82.9° (Epoch: 04 July)

Event Time Altitude Azimuth Distance (km) Brightness Sun altitude
Exits shadow 04:17:50 85° 199° (SSW) 1,008 3.9 -29.8°
Maximum altitude 04:18:01 89° 270° (W) 1,005 3.9 -29.7°
Drops below altitude 10° 04:24:22 10° 3° (N) 2,753 6.7 -28.4°
Sets 04:26:52 0° 3° (N) 3,694 7.5 -27.8°
